| time (UTC) | temp C | wind direction | speed KPH | gust KPH | rain 1hr cm | rain 24hr cm | rain mn cm | humidity % | barometer mb |
| 20260504201557 | 23 | 189 | 6.4 | 17.7 | 0.00 | 0.03 | 0.03 | 52 | 1010.7 |
| 20260504200057 | 23 | 150 | 8.0 | 22.5 | 0.00 | 0.03 | 0.03 | 53 | 1011.2 |
| 20260504194602 | 22 | 210 | 9.7 | 25.7 | 0.00 | 0.03 | 0.03 | 54 | 1011.4 |
| 20260504193057 | 22 | 219 | 8.0 | 20.9 | 0.00 | 0.03 | 0.03 | 56 | 1011.8 |
| 20260504191558 | 21 | 171 | 6.4 | 16.1 | 0.03 | 0.03 | 0.03 | 60 | 1011.8 |
| 20260504190128 | 20 | 169 | 6.4 | 16.1 | 0.03 | 0.03 | 0.03 | 62 | 1012.0 |
| 20260504184555 | 19 | 159 | 6.4 | 17.7 | 0.03 | 0.03 | 0.03 | 66 | 1012.6 |
| 20260504183100 | 18 | 166 | 1.6 | 16.1 | 0.03 | 0.03 | 0.03 | 68 | 1013.1 |
| 20260504181558 | 19 | 255 | 4.8 | 20.9 | 0.00 | 0.00 | 0.00 | 58 | 1013.3 |
| 20260504180057 | 20 | 217 | 9.7 | 22.5 | 0.00 | 0.00 | 0.00 | 52 | 1012.8 |
| 20260504174600 | 20 | 190 | 17.7 | 37.0 | 0.00 | 0.00 | 0.00 | 51 | 1012.5 |
| 20260504173059 | 20 | 205 | 12.9 | 30.6 | 0.00 | 0.00 | 0.00 | 53 | 1012.6 |
| 20260504171557 | 20 | 180 | 11.3 | 29.0 | 0.00 | 0.00 | 0.00 | 54 | 1012.3 |
| 20260504081604 | 7 | 185 | 1.6 | 4.8 | 0.00 | 0.00 | 0.00 | 82 | 1015.0 |
| 20260504060126 | 8 | 166 | 0.0 | 6.4 | 0.00 | 0.00 | 0.00 | 79 | 1016.1 |
| 20260504050115 | 9 | 0 | 1.6 | 6.4 | 0.00 | 0.00 | 0.00 | 79 | 1016.8 |
| 20260504044559 | 9 | 219 | 1.6 | 4.8 | 0.00 | 0.00 | 0.00 | 79 | 1016.9 |
| 20260504043108 | 9 | 227 | 1.6 | 4.8 | 0.00 | 0.00 | 0.00 | 78 | 1016.9 |
| 20260504041557 | 9 | 173 | 1.6 | 4.8 | 0.00 | 0.00 | 0.00 | 77 | 1017.0 |
| 20260504040100 | 10 | 251 | 0.0 | 4.8 | 0.00 | 0.00 | 0.00 | 78 | 1016.9 |
| 20260504034601 | 10 | 232 | 1.6 | 4.8 | 0.00 | 0.00 | 0.00 | 75 | 1016.9 |
| 20260504033100 | 10 | 0 | 0.0 | 4.8 | 0.00 | 0.00 | 0.00 | 75 | 1016.6 |
| 20260504031604 | 10 | 212 | 1.6 | 6.4 | 0.00 | 0.00 | 0.00 | 72 | 1016.5 |
| 20260504030059 | 11 | 0 | 0.0 | 0.0 | 0.00 | 0.00 | 0.00 | 64 | 1016.9 |
| 20260504024557 | 11 | 0 | 0.0 | 1.6 | 0.00 | 0.00 | 0.00 | 61 | 1016.5 |
| 20260504023058 | 11 | 238 | 1.6 | 3.2 | 0.00 | 0.00 | 0.00 | 60 | 1016.5 |
| 20260504021558 | 11 | 238 | 1.6 | 4.8 | 0.00 | 0.00 | 0.00 | 57 | 1016.4 |
| 20260504020057 | 11 | 173 | 1.6 | 4.8 | 0.00 | 0.00 | 0.00 | 57 | 1016.1 |
| 20260504014602 | 11 | 0 | 0.0 | 4.8 | 0.00 | 0.00 | 0.00 | 56 | 1016.0 |
| 20260504013111 | 12 | 214 | 1.6 | 3.2 | 0.00 | 0.00 | 0.00 | 54 | 1015.7 |
| 20260504011556 | 12 | 0 | 0.0 | 0.0 | 0.00 | 0.00 | 0.00 | 54 | 1015.7 |
| 20260504010115 | 12 | 0 | 0.0 | 0.0 | 0.00 | 0.00 | 0.00 | 48 | 1015.9 |
| 20260504004557 | 13 | 0 | 0.0 | 0.0 | 0.00 | 0.00 | 0.00 | 48 | 1015.9 |
| 20260504003059 | 13 | 0 | 0.0 | 0.0 | 0.00 | 0.00 | 0.00 | 46 | 1016.1 |
| 20260504001603 | 13 | 0 | 0.0 | 3.2 | 0.00 | 0.00 | 0.00 | 41 | 1015.9 |
| 20260504000058 | 15 | 0 | 0.0 | 1.6 | 0.00 | 0.00 | 0.00 | 40 | 1016.0 |
| 20260503234557 | 15 | 0 | 0.0 | 6.4 | 0.00 | 0.00 | 0.00 | 34 | 1015.9 |
| 20260503233102 | 16 | 267 | 1.6 | 19.3 | 0.00 | 0.00 | 0.00 | 31 | 1016.0 |
| 20260503231557 | 16 | 126 | 11.3 | 17.7 | 0.00 | 0.00 | 0.00 | 30 | 1016.2 |
| 20260503230056 | 16 | 133 | 6.4 | 19.3 | 0.00 | 0.00 | 0.00 | 30 | 1016.1 |
| 20260503224557 | 17 | 266 | 3.2 | 8.0 | 0.00 | 0.00 | 0.00 | 31 | 1016.2 |
| 20260503223056 | 17 | 163 | 4.8 | 14.5 | 0.00 | 0.00 | 0.00 | 30 | 1016.6 |
| 20260503221600 | 17 | 221 | 4.8 | 17.7 | 0.00 | 0.00 | 0.00 | 30 | 1016.6 |
| 20260503220104 | 17 | 128 | 6.4 | 17.7 | 0.00 | 0.00 | 0.00 | 29 | 1016.6 |
| 20260503214558 | 17 | 206 | 9.7 | 19.3 | 0.00 | 0.00 | 0.00 | 30 | 1016.7 |
| 20260503213057 | 17 | 166 | 6.4 | 19.3 | 0.00 | 0.00 | 0.00 | 31 | 1016.8 |
| 20260503211559 | 17 | 193 | 4.8 | 16.1 | 0.00 | 0.00 | 0.00 | 31 | 1016.8 |
| 20260503210101 | 17 | 194 | 9.7 | 20.9 | 0.00 | 0.00 | 0.00 | 29 | 1017.0 |
| 20260503204609 | 17 | 237 | 4.8 | 16.1 | 0.00 | 0.00 | 0.00 | 30 | 1017.1 |
| 20260503203106 | 17 | 214 | 8.0 | 19.3 | 0.00 | 0.00 | 0.00 | 31 | 1017.2 |